NKS236 KABQ-KLAS

Flight info

Callsign NKS236
Flight time 1h 20m
Altitude 30000
Route ADYOS3 GUP HAHAA RKSTR4
Aircraft A320/M-SDE3FGHIRWY/LB1

Departure

Time 2026-05-04 21:00
Airport Albuquerque International Sunport (KABQ)

Arrival

Time 2026-05-04 22:20
Airport Harry Reid International Airport (KLAS)
Time Latitude Longitude Altitude Speed Heading
2026-05-04 20:49 35.04785 -106.61476 5321 ft 0 kts 180°
2026-05-04 20:49 35.04787 -106.61476 5324 ft 2 kts 180°
2026-05-04 20:49 35.04806 -106.61476 5312 ft 3 kts 181°
2026-05-04 20:50 35.04823 -106.61476 5317 ft 1 kts 169°
2026-05-04 20:50 35.04831 -106.61478 5317 ft 1 kts 124°
2026-05-04 20:50 35.04835 -106.61487 5312 ft 1 kts 99°
2026-05-04 20:50 35.04837 -106.61497 5312 ft 1 kts 91°
2026-05-04 20:51 35.04837 -106.61505 5311 ft 0 kts 90°
2026-05-04 20:53 35.04837 -106.61503 5311 ft 1 kts 90°
2026-05-04 20:53 35.04836 -106.61448 5321 ft 11 kts 90°
2026-05-04 20:53 35.04835 -106.61349 5321 ft 11 kts 94°
2026-05-04 20:54 35.04777 -106.61306 5317 ft 11 kts 182°
2026-05-04 20:54 35.04696 -106.61310 5319 ft 12 kts 182°
2026-05-04 20:54 35.04602 -106.61313 5319 ft 14 kts 163°
2026-05-04 20:54 35.04581 -106.61206 5317 ft 14 kts 90°
2026-05-04 20:55 35.04581 -106.61083 5321 ft 15 kts 90°
2026-05-04 20:55 35.04580 -106.60939 5317 ft 21 kts 90°
2026-05-04 20:55 35.04578 -106.60730 5321 ft 26 kts 90°
2026-05-04 20:55 35.04577 -106.60505 5321 ft 27 kts 90°
2026-05-04 20:56 35.04575 -106.60280 5321 ft 27 kts 90°
2026-05-04 20:56 35.04573 -106.60050 5321 ft 27 kts 90°
2026-05-04 20:56 35.04586 -106.59818 5317 ft 27 kts 89°
2026-05-04 20:56 35.04584 -106.59584 5313 ft 28 kts 90°
2026-05-04 20:57 35.04583 -106.59346 5321 ft 28 kts 90°
2026-05-04 20:57 35.04581 -106.59106 5321 ft 29 kts 90°
2026-05-04 20:57 35.04580 -106.58861 5315 ft 29 kts 91°
2026-05-04 20:57 35.04578 -106.58615 5321 ft 29 kts 90°
2026-05-04 20:58 35.04577 -106.58365 5321 ft 30 kts 90°
2026-05-04 20:58 35.04575 -106.58114 5321 ft 30 kts 91°
2026-05-04 20:58 35.04574 -106.57869 5321 ft 24 kts 91°
2026-05-04 20:58 35.04562 -106.57732 5319 ft 14 kts 126°
2026-05-04 20:59 35.04468 -106.57725 5318 ft 15 kts 195°
2026-05-04 20:59 35.04409 -106.57820 5317 ft 17 kts 270°
2026-05-04 20:59 35.04410 -106.58168 5318 ft 73 kts 270°
2026-05-04 20:59 35.04416 -106.59032 5321 ft 129 kts 270°
2026-05-04 21:00 35.04422 -106.60322 5325 ft 174 kts 270°
2026-05-04 21:00 35.04443 -106.61831 5881 ft 179 kts 267°
2026-05-04 21:00 35.04444 -106.63331 6666 ft 176 kts 264°
2026-05-04 21:00 35.04416 -106.64831 7176 ft 181 kts 266°
2026-05-04 21:01 35.04384 -106.66454 7347 ft 203 kts 266°
2026-05-04 21:01 35.04358 -106.68277 7483 ft 227 kts 267°
2026-05-04 21:01 35.04343 -106.70308 7716 ft 251 kts 269°
2026-05-04 21:01 35.04339 -106.72529 8056 ft 270 kts 269°
2026-05-04 21:02 35.04344 -106.74855 8649 ft 278 kts 269°
2026-05-04 21:02 35.04355 -106.77223 9368 ft 280 kts 269°
2026-05-04 21:02 35.04368 -106.79593 10117 ft 282 kts 270°
2026-05-04 21:02 35.04383 -106.82040 10316 ft 304 kts 270°
2026-05-04 21:03 35.04440 -106.84703 10574 ft 321 kts 271°
2026-05-04 21:03 35.04538 -106.87449 11153 ft 326 kts 272°
2026-05-04 21:03 35.04654 -106.90214 11660 ft 326 kts 272°
2026-05-04 21:03 35.05028 -106.92944 12411 ft 328 kts 284°
2026-05-04 21:04 35.05871 -106.95538 13227 ft 329 kts 291°
2026-05-04 21:04 35.06802 -106.98094 13906 ft 330 kts 291°
2026-05-04 21:04 35.07731 -107.00664 14539 ft 331 kts 291°
2026-05-04 21:04 35.08646 -107.03214 15151 ft 333 kts 291°
2026-05-04 21:05 35.09574 -107.05806 15759 ft 334 kts 291°
2026-05-04 21:05 35.10504 -107.08409 16384 ft 335 kts 292°
2026-05-04 21:05 35.11438 -107.11020 17016 ft 336 kts 292°
2026-05-04 21:05 35.12378 -107.13641 17644 ft 338 kts 292°
2026-05-04 21:06 35.13322 -107.16275 18251 ft 339 kts 292°
2026-05-04 21:06 35.14266 -107.18918 18803 ft 340 kts 292°
2026-05-04 21:06 35.15213 -107.21574 19344 ft 342 kts 291°
2026-05-04 21:06 35.16149 -107.24216 19889 ft 344 kts 289°
2026-05-04 21:07 35.16826 -107.27018 20438 ft 344 kts 280°
2026-05-04 21:07 35.17294 -107.29889 20991 ft 346 kts 279°
2026-05-04 21:07 35.17762 -107.32778 21529 ft 347 kts 278°
2026-05-04 21:07 35.18232 -107.35682 22088 ft 349 kts 278°
2026-05-04 21:08 35.18703 -107.38595 22611 ft 350 kts 278°
2026-05-04 21:08 35.19175 -107.41519 23101 ft 352 kts 277°
2026-05-04 21:08 35.19642 -107.44419 23555 ft 353 kts 277°
2026-05-04 21:08 35.20116 -107.47367 23964 ft 354 kts 277°
2026-05-04 21:09 35.20592 -107.50330 24387 ft 355 kts 277°
2026-05-04 21:09 35.21068 -107.53299 24863 ft 356 kts 277°
2026-05-04 21:09 35.21543 -107.56255 25373 ft 354 kts 277°
2026-05-04 21:09 35.22019 -107.59210 25818 ft 354 kts 276°
2026-05-04 21:10 35.22494 -107.62162 26209 ft 355 kts 277°
2026-05-04 21:10 35.22968 -107.65136 26602 ft 357 kts 277°
2026-05-04 21:10 35.23441 -107.68117 27000 ft 358 kts 277°
2026-05-04 21:10 35.23910 -107.71073 27396 ft 359 kts 277°
2026-05-04 21:11 35.24387 -107.74080 27784 ft 361 kts 277°
2026-05-04 21:11 35.24865 -107.77100 28081 ft 363 kts 277°
2026-05-04 21:11 35.25346 -107.80144 28424 ft 365 kts 277°
2026-05-04 21:11 35.25829 -107.83203 29075 ft 367 kts 277°
2026-05-04 21:12 35.26315 -107.86272 29433 ft 368 kts 277°
2026-05-04 21:12 35.26800 -107.89344 29911 ft 367 kts 277°
2026-05-04 21:12 35.27276 -107.92364 30050 ft 363 kts 277°
2026-05-04 21:12 35.27748 -107.95343 30048 ft 353 kts 277°
2026-05-04 21:13 35.28664 -108.01180 30013 ft 347 kts 276°
2026-05-04 21:13 35.29567 -108.06985 29970 ft 347 kts 276°
2026-05-04 21:14 35.30463 -108.12785 29922 ft 347 kts 276°
2026-05-04 21:14 35.31356 -108.18547 29867 ft 347 kts 276°
2026-05-04 21:15 35.32258 -108.24347 29820 ft 347 kts 276°
2026-05-04 21:15 35.33151 -108.30148 29776 ft 347 kts 276°
2026-05-04 21:16 35.34036 -108.35953 29803 ft 346 kts 276°
2026-05-04 21:16 35.35414 -108.41610 29796 ft 350 kts 282°
2026-05-04 21:17 35.36949 -108.47278 29777 ft 351 kts 282°
2026-05-04 21:17 35.38472 -108.52948 29773 ft 350 kts 282°
2026-05-04 21:18 35.39989 -108.58621 29765 ft 350 kts 282°
2026-05-04 21:18 35.41489 -108.64258 29759 ft 350 kts 282°
2026-05-04 21:19 35.42999 -108.69932 29763 ft 350 kts 282°
2026-05-04 21:19 35.44507 -108.75602 30067 ft 350 kts 282°
2026-05-04 21:20 35.46004 -108.81239 30085 ft 350 kts 281°
2026-05-04 21:20 35.47411 -108.86933 30071 ft 345 kts 275°
2026-05-04 21:21 35.47629 -108.92747 30057 ft 341 kts 267°
2026-05-04 21:21 35.47656 -108.98558 30005 ft 340 kts 267°
2026-05-04 21:22 35.47678 -109.04364 29980 ft 340 kts 267°
2026-05-04 21:22 35.47702 -109.10136 29975 ft 341 kts 267°
2026-05-04 21:23 35.47727 -109.15952 29976 ft 341 kts 266°
2026-05-04 21:23 35.47752 -109.21777 29957 ft 342 kts 266°
2026-05-04 21:24 35.47767 -109.27605 29936 ft 342 kts 266°
2026-05-04 21:24 35.47773 -109.33432 29908 ft 341 kts 266°
2026-05-04 21:25 35.47782 -109.39216 29871 ft 341 kts 266°
2026-05-04 21:25 35.47791 -109.45038 29835 ft 341 kts 266°
2026-05-04 21:26 35.47793 -109.50861 29828 ft 341 kts 266°
2026-05-04 21:26 35.47795 -109.56685 29825 ft 342 kts 266°
2026-05-04 21:27 35.47797 -109.62520 29826 ft 342 kts 266°
2026-05-04 21:27 35.47790 -109.68318 29826 ft 342 kts 266°
2026-05-04 21:28 35.47779 -109.74158 29828 ft 342 kts 266°
2026-05-04 21:28 35.47769 -109.80001 29830 ft 342 kts 266°
2026-05-04 21:29 35.47757 -109.85842 29826 ft 342 kts 265°
2026-05-04 21:29 35.47739 -109.91643 29826 ft 342 kts 265°
2026-05-04 21:30 35.47724 -109.97484 29826 ft 342 kts 265°
2026-05-04 21:30 35.47702 -110.03325 29826 ft 342 kts 265°
2026-05-04 21:31 35.47664 -110.12082 29823 ft 342 kts 265°
2026-05-04 21:32 35.47638 -110.17884 29840 ft 342 kts 265°
2026-05-04 21:32 35.47608 -110.23730 29837 ft 343 kts 264°
2026-05-04 21:33 35.47571 -110.29570 29841 ft 342 kts 264°
2026-05-04 21:33 35.47533 -110.35406 29842 ft 342 kts 264°
2026-05-04 21:34 35.47495 -110.41196 29840 ft 342 kts 264°
2026-05-04 21:34 35.47456 -110.47019 29836 ft 341 kts 264°
2026-05-04 21:35 35.47411 -110.52840 29843 ft 341 kts 264°
2026-05-04 21:35 35.47362 -110.58661 29840 ft 341 kts 264°
2026-05-04 21:36 35.47307 -110.64475 29830 ft 341 kts 264°
2026-05-04 21:36 35.47251 -110.70252 29827 ft 341 kts 264°
2026-05-04 21:37 35.47198 -110.76068 29824 ft 341 kts 264°
2026-05-04 21:37 35.47141 -110.81882 29839 ft 341 kts 263°
2026-05-04 21:38 35.47080 -110.87698 29827 ft 341 kts 263°
2026-05-04 21:38 35.47013 -110.93466 29816 ft 341 kts 263°
2026-05-04 21:39 35.46946 -110.99276 29810 ft 341 kts 263°
2026-05-04 21:39 35.46877 -111.05090 29806 ft 341 kts 263°
2026-05-04 21:40 35.46804 -111.10897 29804 ft 340 kts 263°
2026-05-04 21:40 35.46727 -111.16704 29778 ft 341 kts 263°
2026-05-04 21:41 35.46646 -111.22488 29777 ft 342 kts 263°
2026-05-04 21:41 35.46567 -111.28328 29793 ft 343 kts 263°
2026-05-04 21:42 35.46485 -111.34178 29793 ft 343 kts 263°
2026-05-04 21:42 35.46398 -111.40038 29797 ft 344 kts 263°
2026-05-04 21:43 35.46306 -111.45858 29806 ft 344 kts 263°
2026-05-04 21:43 35.46212 -111.51714 29806 ft 343 kts 263°
2026-05-04 21:44 35.46118 -111.57572 29826 ft 344 kts 263°
2026-05-04 21:44 35.46021 -111.63431 29825 ft 344 kts 263°
2026-05-04 21:45 35.45922 -111.69252 29824 ft 344 kts 263°
2026-05-04 21:45 35.45817 -111.75107 29867 ft 344 kts 263°
2026-05-04 21:46 35.45709 -111.80963 29867 ft 343 kts 263°
2026-05-04 21:46 35.45698 -111.86828 29850 ft 348 kts 269°
2026-05-04 21:47 35.46439 -111.92703 29833 ft 352 kts 271°
2026-05-04 21:47 35.47187 -111.98634 29837 ft 352 kts 271°
2026-05-04 21:48 35.47928 -112.04574 29845 ft 353 kts 271°
2026-05-04 21:48 35.48671 -112.10520 29838 ft 353 kts 271°
2026-05-04 21:49 35.49405 -112.16433 29873 ft 353 kts 270°
2026-05-04 21:49 35.50144 -112.22385 29867 ft 353 kts 270°
2026-05-04 21:50 35.50879 -112.28329 29857 ft 352 kts 270°
2026-05-04 21:50 35.51609 -112.34272 29844 ft 352 kts 270°
2026-05-04 21:51 35.52333 -112.40171 29856 ft 352 kts 270°
2026-05-04 21:51 35.53057 -112.46115 29871 ft 352 kts 270°
2026-05-04 21:52 35.53779 -112.52060 29866 ft 352 kts 270°
2026-05-04 21:52 35.54495 -112.57992 29883 ft 351 kts 270°
2026-05-04 21:53 35.55206 -112.63868 29873 ft 349 kts 270°
2026-05-04 21:53 35.55919 -112.69761 29867 ft 349 kts 270°
2026-05-04 21:54 35.56623 -112.75646 29870 ft 348 kts 269°
2026-05-04 21:54 35.57316 -112.81533 29863 ft 348 kts 269°
2026-05-04 21:55 35.58007 -112.87418 29859 ft 349 kts 269°
2026-05-04 21:55 35.58705 -112.93269 29846 ft 348 kts 269°
2026-05-04 21:55 35.59052 -112.96179 29567 ft 340 kts 269°
2026-05-04 21:56 35.59392 -112.99014 29286 ft 331 kts 269°
2026-05-04 21:56 35.59722 -113.01785 29016 ft 325 kts 269°
2026-05-04 21:56 35.60042 -113.04523 28745 ft 322 kts 269°
2026-05-04 21:56 35.60353 -113.07235 28483 ft 320 kts 269°
2026-05-04 21:57 35.60662 -113.09941 28221 ft 319 kts 269°
2026-05-04 21:57 35.60970 -113.12634 27979 ft 318 kts 269°
2026-05-04 21:57 35.61275 -113.15279 27723 ft 316 kts 269°
2026-05-04 21:57 35.61585 -113.17952 27470 ft 315 kts 269°
2026-05-04 21:58 35.61893 -113.20616 27213 ft 314 kts 269°
2026-05-04 21:58 35.62200 -113.23271 26962 ft 313 kts 269°
2026-05-04 21:58 35.62505 -113.25916 26702 ft 313 kts 270°
2026-05-04 21:58 35.62810 -113.28540 26517 ft 307 kts 270°
2026-05-04 21:59 35.63109 -113.31119 26216 ft 302 kts 270°
2026-05-04 21:59 35.63403 -113.33660 25918 ft 298 kts 270°
2026-05-04 21:59 35.63691 -113.36164 25598 ft 294 kts 270°
2026-05-04 21:59 35.63968 -113.38605 25277 ft 291 kts 270°
2026-05-04 22:00 35.64241 -113.41045 24963 ft 287 kts 271°
2026-05-04 22:00 35.64511 -113.43463 24657 ft 284 kts 271°
2026-05-04 22:00 35.64781 -113.45851 24324 ft 280 kts 271°
2026-05-04 22:00 35.65047 -113.48204 24014 ft 277 kts 271°
2026-05-04 22:01 35.65325 -113.50548 23699 ft 278 kts 273°
2026-05-04 22:01 35.65684 -113.52983 23412 ft 298 kts 275°
2026-05-04 22:01 35.66100 -113.55506 23064 ft 303 kts 276°
2026-05-04 22:01 35.66537 -113.58047 22753 ft 304 kts 276°
2026-05-04 22:02 35.66971 -113.60560 22444 ft 305 kts 276°
2026-05-04 22:02 35.67408 -113.63111 22123 ft 304 kts 276°
2026-05-04 22:02 35.67835 -113.65657 21814 ft 304 kts 275°
2026-05-04 22:02 35.68255 -113.68200 21509 ft 303 kts 276°
2026-05-04 22:03 35.68671 -113.70743 21201 ft 303 kts 276°
2026-05-04 22:03 35.69083 -113.73279 20893 ft 303 kts 276°
2026-05-04 22:03 35.69495 -113.75819 20590 ft 303 kts 275°
2026-05-04 22:03 35.69902 -113.78323 20278 ft 302 kts 276°
2026-05-04 22:04 35.70314 -113.80857 19979 ft 302 kts 275°
2026-05-04 22:04 35.70725 -113.83393 19670 ft 302 kts 276°
2026-05-04 22:04 35.71134 -113.85929 19363 ft 302 kts 276°
2026-05-04 22:04 35.71543 -113.88464 19055 ft 302 kts 276°
2026-05-04 22:05 35.71950 -113.90994 18748 ft 301 kts 276°
2026-05-04 22:05 35.72357 -113.93531 18443 ft 303 kts 276°
2026-05-04 22:05 35.72765 -113.96075 18129 ft 303 kts 276°
2026-05-04 22:05 35.73168 -113.98588 17884 ft 303 kts 276°
2026-05-04 22:06 35.73576 -114.01136 17594 ft 303 kts 276°
2026-05-04 22:06 35.73985 -114.03678 17287 ft 303 kts 276°
2026-05-04 22:06 35.74393 -114.06226 16978 ft 303 kts 276°
2026-05-04 22:06 35.74799 -114.08764 16672 ft 302 kts 276°
2026-05-04 22:07 35.75206 -114.11298 16369 ft 301 kts 276°
2026-05-04 22:07 35.75615 -114.13826 16059 ft 301 kts 277°
2026-05-04 22:07 35.76290 -114.16278 15749 ft 305 kts 290°
2026-05-04 22:07 35.77291 -114.18554 15460 ft 307 kts 293°
2026-05-04 22:08 35.78318 -114.20859 15146 ft 306 kts 292°
2026-05-04 22:08 35.79339 -114.23168 14849 ft 307 kts 292°
2026-05-04 22:08 35.80356 -114.25473 14559 ft 306 kts 292°
2026-05-04 22:08 35.81369 -114.27772 14251 ft 305 kts 292°
2026-05-04 22:09 35.82380 -114.30067 13950 ft 305 kts 293°
2026-05-04 22:09 35.83389 -114.32362 13646 ft 304 kts 292°
2026-05-04 22:09 35.84552 -114.34555 13331 ft 308 kts 301°
2026-05-04 22:09 35.85844 -114.36619 13029 ft 308 kts 301°
2026-05-04 22:10 35.87150 -114.38704 12727 ft 307 kts 302°
2026-05-04 22:10 35.88448 -114.40778 12423 ft 305 kts 302°
2026-05-04 22:10 35.89737 -114.42840 12126 ft 303 kts 302°
2026-05-04 22:10 35.91020 -114.44890 11829 ft 301 kts 302°
2026-05-04 22:11 35.92296 -114.46934 11549 ft 300 kts 302°
2026-05-04 22:11 35.93563 -114.48966 11266 ft 298 kts 302°
2026-05-04 22:11 35.94823 -114.50990 10980 ft 297 kts 303°
2026-05-04 22:11 35.96062 -114.52982 10699 ft 296 kts 303°
2026-05-04 22:12 35.97308 -114.54994 10415 ft 294 kts 302°
2026-05-04 22:12 35.98542 -114.56993 10132 ft 291 kts 301°
2026-05-04 22:12 35.99760 -114.58973 9856 ft 289 kts 303°
2026-05-04 22:12 36.00980 -114.60958 9578 ft 291 kts 303°
2026-05-04 22:13 36.02200 -114.62946 9285 ft 289 kts 303°
2026-05-04 22:13 36.03410 -114.64920 9004 ft 286 kts 302°
2026-05-04 22:13 36.04484 -114.66953 8713 ft 281 kts 296°
2026-05-04 22:13 36.05477 -114.68973 8442 ft 277 kts 296°
2026-05-04 22:14 36.06471 -114.70994 8165 ft 273 kts 296°
2026-05-04 22:14 36.07175 -114.73101 8000 ft 261 kts 278°
2026-05-04 22:14 36.07328 -114.75289 7752 ft 253 kts 266°
2026-05-04 22:14 36.07331 -114.77466 7448 ft 253 kts 266°
2026-05-04 22:15 36.07333 -114.79637 7129 ft 254 kts 266°
2026-05-04 22:15 36.07338 -114.81832 6801 ft 255 kts 265°
2026-05-04 22:15 36.07343 -114.84029 6475 ft 256 kts 265°
2026-05-04 22:15 36.07348 -114.86203 6144 ft 247 kts 266°
2026-05-04 22:16 36.07353 -114.88248 5839 ft 236 kts 265°
2026-05-04 22:16 36.07356 -114.90233 5525 ft 227 kts 266°
2026-05-04 22:16 36.07358 -114.92131 5233 ft 215 kts 266°
2026-05-04 22:16 36.07360 -114.93938 4957 ft 206 kts 266°
2026-05-04 22:17 36.07362 -114.95669 4725 ft 196 kts 266°
2026-05-04 22:17 36.07364 -114.97306 4480 ft 186 kts 265°
2026-05-04 22:17 36.07365 -114.98863 4232 ft 176 kts 266°
2026-05-04 22:17 36.07366 -115.00344 4019 ft 170 kts 266°
2026-05-04 22:18 36.07366 -115.01754 3799 ft 161 kts 265°
2026-05-04 22:18 36.07367 -115.03089 3603 ft 151 kts 266°
2026-05-04 22:18 36.07367 -115.04369 3422 ft 147 kts 266°
2026-05-04 22:18 36.07366 -115.05639 3238 ft 148 kts 265°
2026-05-04 22:19 36.07366 -115.06912 3044 ft 148 kts 265°
2026-05-04 22:19 36.07367 -115.08169 2839 ft 145 kts 261°
2026-05-04 22:19 36.07365 -115.09437 2627 ft 150 kts 262°
2026-05-04 22:19 36.07367 -115.10727 2465 ft 148 kts 263°
2026-05-04 22:20 36.07371 -115.11989 2208 ft 145 kts 263°
2026-05-04 22:20 36.07368 -115.13229 2075 ft 134 kts 264°
2026-05-04 22:20 36.07358 -115.14162 2106 ft 86 kts 271°
2026-05-04 22:20 36.07365 -115.14713 2123 ft 39 kts 275°
2026-05-04 22:21 36.07432 -115.14965 2128 ft 18 kts 299°
2026-05-04 22:21 36.07499 -115.15094 2128 ft 18 kts 312°
2026-05-04 22:21 36.07601 -115.15172 2131 ft 17 kts 335°
2026-05-04 22:21 36.07705 -115.15232 2134 ft 16 kts 334°
2026-05-04 22:22 36.07803 -115.15288 2137 ft 15 kts 335°
2026-05-04 22:22 36.07880 -115.15249 2134 ft 17 kts 85°
2026-05-04 22:22 36.07878 -115.15084 2128 ft 22 kts 93°
2026-05-04 22:22 36.07865 -115.14906 2122 ft 22 kts 95°
2026-05-04 22:23 36.07867 -115.14749 2114 ft 16 kts 55°
2026-05-04 22:23 36.07968 -115.14768 2113 ft 11 kts 335°
2026-05-04 22:23 36.08009 -115.14759 2113 ft 6 kts 56°
2026-05-04 22:23 36.08023 -115.14734 2115 ft 1 kts 56°
2026-05-04 22:24 36.08026 -115.14727 2116 ft 0 kts 56°